This is the latest recevied weather packets stored in our database for station/object K6JWN. If no packets are shown the sender has not sent any weather packets the latest 10 day(s).
| Time | Temp. | Humidity | Pressure | Rain* | Wind** | Luminosity | Snow |
|---|---|---|---|---|---|---|---|
| 1778013557 | 18.33° C | 65% | 1015 hPa | 0 mm | - | - | - |
| 1778012957 | 17.78° C | 64% | 1014.9 hPa | 0 mm | - | - | - |
| 1778012357 | 17.78° C | 67% | 1014.9 hPa | 0 mm | - | - | - |
| 1778011757 | 17.22° C | 67% | 1015.1 hPa | 0 mm | - | - | - |
| 1778011157 | 16.67° C | 69% | 1015.1 hPa | 0 mm | - | - | - |
| 1778010557 | 16.67° C | 68% | 1015.1 hPa | 0 mm | - | - | - |
| 1778009957 | 16.67° C | 69% | 1015.2 hPa | 0 mm | - | - | - |
| 1778009357 | 16.67° C | 69% | 1015.2 hPa | 0 mm | - | - | - |
| 1778008757 | 16.67° C | 69% | 1015.1 hPa | 0 mm | - | - | - |
| 1778008157 | 16.11° C | 70% | 1015.2 hPa | 0 mm | - | - | - |
| 1778007558 | 16.67° C | 71% | 1015.2 hPa | 0 mm | - | - | - |
| 1778006957 | 16.11° C | 70% | 1015.1 hPa | 0 mm | - | - | - |
| 1778006357 | 15.56° C | 73% | 1014.9 hPa | 0 mm | - | - | - |
| 1778005757 | 15.56° C | 74% | 1014.9 hPa | 0 mm | - | - | - |
| 1778005157 | 15° C | 73% | 1015.1 hPa | 0 mm | - | - | - |
| 1778004557 | 15° C | 75% | 1014.9 hPa | 0 mm | - | - | - |
| 1778003957 | 15° C | 74% | 1014.8 hPa | 0 mm | - | - | - |
| 1778003357 | 15.56° C | 72% | 1014.8 hPa | 0 mm | - | - | - |
| 1778002757 | 15° C | 75% | 1014.7 hPa | 0 mm | - | - | - |
| 1778002157 | 15° C | 74% | 1014.7 hPa | 0 mm | - | - | - |
| 1778001557 | 14.44° C | 76% | 1014.7 hPa | 0 mm | - | - | - |
| 1778000957 | 14.44° C | 77% | 1014.7 hPa | 0 mm | - | - | - |
| 1778000357 | 13.89° C | 78% | 1014.8 hPa | 0 mm | - | - | - |
| 1777999757 | 13.33° C | 78% | 1014.9 hPa | 0 mm | - | - | - |
| 1777999157 | 13.33° C | 79% | 1014.7 hPa | 0 mm | - | - | - |
* Rain latest hour (hover to see other rain measurements)
** Current wind speed in m/s (hover to see current wind gust speed)